User: anonymous   Login
Location: Unspecified
(0.0000°N, 0.0000°E)
Time: 00:37:51
(UTC+00:00)
Language:

AAUSAT 4 - Orbit

View from above orbital plane
View from above orbital plane
View from above satellite
View from above satellite

Ground track
Ground track

The orbit data is extracted from the following two-line orbital elements,

1 41460U 16025E   17206.58578209 +.00003233 +00000-0 +17522-3 0  9990
2 41460 098.1771 246.4304 0168172 159.5504 201.2563 15.04046315068368
Epoch (UTC): 25 July 2017 14:03:31
Eccentricity: 0.0168172
inclination: 98.1771°
perigee height: 438 km
apogee height: 671 km
right ascension of ascending node: 246.4304°
argument of perigee: 159.5504°
revolutions per day: 15.04046315
mean anomaly at epoch: 201.2563°
orbit number at epoch: 6836

The dashed part of the orbit path shows where the satellite is in the earth's shadow,  

DLR